Weather History for Great Bend, KS

Change the Weather History Date:

Saturday, December 17, 2011

  Actual Average Record
Temperature  
Mean Temperature 40 °F -  
Max Temperature 55 °F 46 °F 73 °F (1980)
Min Temperature 24 °F 21 °F -2 °F (2008)
Degree Days  
Heating Degree Days 26    
Moisture  
Dew Point 26 °F    
Average Humidity 68    
Maximum Humidity 86    
Minimum Humidity 36    
Precipitation  
Precipitation 0.00 in - - ()
Sea Level Pressure  
Sea Level Pressure 30.37 in    
Wind  
Wind Speed 7 mph (WSW)    
Max Wind Speed 16 mph    
Max Gust Speed -    
Visibility 10 miles    
Events      
Averages and records for this station are not official NWS values.
T = Trace of Precipitation, MM = Missing Value Source: NWS Daily Summary

Daily Weather History Graph

Daily Weather History Graph

Search for Another Location

Airport:

Trip Planner

Search our weather history database for the weather conditions in past years. The results will help you decide how hot, cold, wet, or windy it might be!

Date:

Astronomy

Dec. 17, 2011 Rise Set
Actual Time 7:46 AM CST 5:16 PM CST
Civil Twilight 7:16 AM CST 5:46 PM CST
Nautical Twilight 6:43 AM CST 6:19 PM CST
Astronomical Twilight 6:11 AM CST 6:51 PM CST
Moon No Moon Rise 12:07 PM CST (12/17)
Length of Visible Light 10h 29m
Length of Day
9h 30m
Waning Gibbous, 53% of the Moon is Illuminated
Dec 17
Waning Gibbous
Dec 17
Last Quarter
Dec 24
New
Jan 1
First Quarter
Jan 9
Full

Hourly Weather History & Observations

Time (CST) Temp. Windchill Dew Point Humidity Pressure Visibility Wind Dir Wind Speed Gust Speed Precip Events Conditions
12:15 AM 26.6 °F 20.0 °F 21.2 °F 80% 30.39 in 10.0 mi WSW 5.8 mph - N/A   Clear
12:35 AM 26.6 °F 21.2 °F 21.2 °F 80% 30.39 in 10.0 mi WSW 4.6 mph - N/A   Clear
12:55 AM 26.6 °F 21.2 °F 21.2 °F 80% 30.38 in 10.0 mi WSW 4.6 mph - N/A   Clear
1:15 AM 24.8 °F 16.9 °F 21.2 °F 86% 30.38 in 10.0 mi West 6.9 mph - N/A   Clear
1:35 AM 24.8 °F 17.9 °F 19.4 °F 80% 30.38 in 10.0 mi West 5.8 mph - N/A   Clear
1:55 AM 24.8 °F 17.9 °F 21.2 °F 86% 30.38 in 10.0 mi WNW 5.8 mph - N/A   Clear
2:15 AM 26.6 °F 18.2 °F 21.2 °F 80% 30.39 in 10.0 mi WNW 8.1 mph - N/A   Clear
2:35 AM 26.6 °F 21.2 °F 21.2 °F 80% 30.39 in 10.0 mi WSW 4.6 mph - N/A   Clear
2:55 AM 24.8 °F 16.9 °F 19.4 °F 80% 30.39 in 10.0 mi West 6.9 mph - N/A   Clear
3:15 AM 24.8 °F 17.9 °F 21.2 °F 86% 30.39 in 10.0 mi West 5.8 mph - N/A   Clear
3:35 AM 24.8 °F 19.1 °F 19.4 °F 80% 30.40 in 10.0 mi West 4.6 mph - N/A   Clear
3:55 AM 24.8 °F 16.9 °F 19.4 °F 80% 30.40 in 10.0 mi WSW 6.9 mph - N/A   Clear
4:15 AM 24.8 °F 17.9 °F 19.4 °F 80% 30.39 in 10.0 mi WSW 5.8 mph - N/A   Clear
4:35 AM 24.8 °F - 19.4 °F 80% 30.39 in 10.0 mi Calm Calm - N/A   Clear
4:55 AM 26.6 °F 18.2 °F 23.0 °F 86% 30.39 in 10.0 mi WNW 8.1 mph - N/A   Clear
5:15 AM 26.6 °F 19.1 °F 21.2 °F 80% 30.39 in 10.0 mi WNW 6.9 mph - N/A   Clear
5:35 AM 24.8 °F 17.9 °F 19.4 °F 80% 30.39 in 10.0 mi West 5.8 mph - N/A   Clear
5:55 AM 26.6 °F 20.0 °F 21.2 °F 80% 30.39 in 10.0 mi WSW 5.8 mph - N/A   Clear
6:15 AM 26.6 °F 18.2 °F 21.2 °F 80% 30.39 in 10.0 mi West 8.1 mph - N/A   Clear
6:35 AM 28.4 °F 21.2 °F 21.2 °F 74% 30.39 in 10.0 mi West 6.9 mph - N/A   Clear
6:55 AM 26.6 °F 19.1 °F 21.2 °F 80% 30.40 in 10.0 mi West 6.9 mph - N/A   Clear
7:15 AM 26.6 °F 19.1 °F 21.2 °F 80% 30.41 in 10.0 mi WSW 6.9 mph - N/A   Clear
7:35 AM 26.6 °F 19.1 °F 21.2 °F 80% 30.41 in 10.0 mi West 6.9 mph - N/A   Clear
7:55 AM 26.6 °F 20.0 °F 19.4 °F 74% 30.40 in 10.0 mi West 5.8 mph - N/A   Clear
8:15 AM 26.6 °F 19.1 °F 23.0 °F 86% 30.41 in 10.0 mi West 6.9 mph - N/A   Clear
8:35 AM 28.4 °F 22.2 °F 24.8 °F 86% 30.40 in 10.0 mi West 5.8 mph - N/A   Clear
8:55 AM 30.2 °F 23.4 °F 26.6 °F 86% 30.40 in 10.0 mi West 6.9 mph - N/A   Clear
9:15 AM 32.0 °F 25.6 °F 26.6 °F 80% 30.40 in 10.0 mi West 6.9 mph - N/A   Clear
9:35 AM 35.6 °F 29.9 °F 28.4 °F 75% 30.41 in 10.0 mi West 6.9 mph - N/A   Clear
9:55 AM 37.4 °F 31.4 °F 28.4 °F 70% 30.41 in 10.0 mi West 8.1 mph - N/A   Clear
10:15 AM 37.4 °F 32.1 °F 30.2 °F 75% 30.42 in 10.0 mi West 6.9 mph - N/A   Clear
10:35 AM 39.2 °F 35.0 °F 30.2 °F 70% 30.42 in 10.0 mi WNW 5.8 mph - N/A   Clear
10:55 AM 42.8 °F 38.0 °F 32.0 °F 66% 30.43 in 10.0 mi WNW 8.1 mph - N/A   Clear
11:15 AM 44.6 °F 39.7 °F 30.2 °F 57% 30.42 in 10.0 mi WNW 9.2 mph - N/A   Clear
11:35 AM 44.6 °F 40.7 °F 32.0 °F 61% 30.41 in 10.0 mi West 6.9 mph - N/A   Clear
11:55 AM 46.4 °F 42.4 °F 32.0 °F 57% 30.40 in 10.0 mi West 8.1 mph - N/A   Clear
12:15 PM 48.2 °F - 32.0 °F 54% 30.38 in 10.0 mi West 8.1 mph - N/A   Clear
12:35 PM 51.8 °F - 32.0 °F 47% 30.37 in 10.0 mi West 10.4 mph - N/A   Clear
12:55 PM 51.8 °F - 32.0 °F 47% 30.36 in 10.0 mi West 11.5 mph - N/A   Clear
1:15 PM 53.6 °F - 32.0 °F 44% 30.36 in 10.0 mi WSW 11.5 mph - N/A   Clear
1:35 PM 53.6 °F - 32.0 °F 44% 30.36 in 10.0 mi West 12.7 mph - N/A   Clear
2:15 PM 53.6 °F - 28.4 °F 38% 30.34 in 10.0 mi West 16.1 mph - N/A   Clear
2:35 PM 55.4 °F - 28.4 °F 36% 30.34 in 10.0 mi West 13.8 mph - N/A   Clear
2:55 PM 55.4 °F - 28.4 °F 36% 30.33 in 10.0 mi West 12.7 mph - N/A   Clear
3:35 PM 53.6 °F - 28.4 °F 38% 30.32 in 10.0 mi WSW 11.5 mph - N/A   Clear
3:55 PM 53.6 °F - 30.2 °F 41% 30.32 in 10.0 mi WSW 11.5 mph - N/A   Clear
4:15 PM 53.6 °F - 30.2 °F 41% 30.32 in 10.0 mi WSW 6.9 mph - N/A   Clear
4:35 PM 51.8 °F - 32.0 °F 47% 30.32 in 10.0 mi WSW 5.8 mph - N/A   Clear
4:55 PM 50.0 °F - 30.2 °F 47% 30.32 in 10.0 mi WSW 5.8 mph - N/A   Clear
5:15 PM 48.2 °F - 30.2 °F 50% 30.32 in 10.0 mi SW 4.6 mph - N/A   Clear
5:35 PM 46.4 °F 44.3 °F 30.2 °F 53% 30.32 in 10.0 mi SW 4.6 mph - N/A   Clear
6:15 PM 39.2 °F 35.9 °F 28.4 °F 65% 30.32 in 10.0 mi SSW 4.6 mph - N/A   Clear
6:35 PM 39.2 °F 35.0 °F 28.4 °F 65% 30.32 in 10.0 mi SSW 5.8 mph - N/A   Clear
6:55 PM 35.6 °F 29.9 °F 26.6 °F 70% 30.32 in 10.0 mi SSW 6.9 mph - N/A   Clear
7:15 PM 35.6 °F 30.7 °F 26.6 °F 70% 30.32 in 10.0 mi SSW 5.8 mph - N/A   Clear
7:35 PM 35.6 °F 29.9 °F 26.6 °F 70% 30.32 in 10.0 mi SW 6.9 mph - N/A   Clear
7:55 PM 35.6 °F 29.9 °F 26.6 °F 70% 30.32 in 10.0 mi SSW 6.9 mph - N/A   Clear
8:15 PM 33.8 °F 27.7 °F 26.6 °F 75% 30.32 in 10.0 mi SSW 6.9 mph - N/A   Clear
8:35 PM 35.6 °F 29.9 °F 26.6 °F 70% 30.32 in 10.0 mi SW 6.9 mph - N/A   Clear
8:55 PM 33.8 °F 27.0 °F 24.8 °F 70% 30.33 in 10.0 mi SW 8.1 mph - N/A   Clear
9:15 PM 33.8 °F 26.4 °F 26.6 °F 75% 30.32 in 10.0 mi SW 9.2 mph - N/A   Clear
9:35 PM 33.8 °F 26.4 °F 26.6 °F 75% 30.32 in 10.0 mi SW 9.2 mph - N/A   Clear
9:55 PM 32.0 °F 25.6 °F 24.8 °F 75% 30.31 in 10.0 mi SW 6.9 mph - N/A   Clear
10:15 PM 30.2 °F 23.4 °F 24.8 °F 80% 30.31 in 10.0 mi SW 6.9 mph - N/A   Clear
10:35 PM 30.2 °F 24.3 °F 24.8 °F 80% 30.31 in 10.0 mi SW 5.8 mph - N/A   Clear
10:55 PM 30.2 °F 23.4 °F 24.8 °F 80% 30.31 in 10.0 mi SW 6.9 mph - N/A   Clear
11:15 PM 30.2 °F 24.3 °F 24.8 °F 80% 30.30 in 10.0 mi SW 5.8 mph - N/A   Clear
11:35 PM 30.2 °F 23.4 °F 24.8 °F 80% 30.30 in 10.0 mi SW 6.9 mph - N/A   Clear
11:55 PM 30.2 °F 24.3 °F 24.8 °F 80% 30.29 in 10.0 mi SW 5.8 mph - N/A   Clear